Regional Weather Roundup
Issued by NWS

Home | Current Version | Previous Version | Text Only | Print | Product List | Glossary On
Versions: 1 2 3 4 5 6 7 8 9 10 11 12 13 14 15 16 17 18 19 20 21 22 23 24 25 26 27 28
000
ASUS45 KCYS 300410
RWRWY

WYOMING REGIONAL WEATHER ROUNDUP
NATIONAL WEATHER SERVICE CHEYENNE WY
1000 PM MDT MON MAY 29 2017

NOTE:  "FAIR" INDICATES FEW OR NO CLOUDS BELOW 12,000 FEET
WITH NO SIGNIFICANT WEATHER AND/OR OBSTRUCTIONS TO VISIBILITY.

WYZ001-300500-
YELLOWSTONE NATIONAL PARK

CITY           SKY/WX    TMP DP  RH WIND       PRES   REMARKS
LK YELLOWSTONE   N/A     42  34  73 CALM      30.32R
W YELLOWSTONE  NOT AVBL

$$
WYZ002>013-054>058-071-098>099-300500-
NORTHERN WYOMING

CITY           SKY/WX    TMP DP  RH WIND       PRES   REMARKS
JACKSON        FAIR      48  32  53 E5        30.23R
CODY           FAIR      57  36  45 CALM      30.21R
GREYBULL       FAIR      62  30  29 NW8       30.12R
WORLAND        FAIR      50  39  66 CALM      30.14R
SHERIDAN       FAIR      49  41  74 SE6       30.16R
BUFFALO        FAIR      50  37  61 W7        30.21R
GILLETTE       FAIR      44  32  62 W8        30.17R
HULETT         FAIR      54  28  37 W3        30.16S
NEWCASTLE      FAIR      50  27  40 N9        30.17R

$$
WYZ014>020-022>026-101>103-300500-
CENTRAL WYOMING

CITY           SKY/WX    TMP DP  RH WIND       PRES   REMARKS
BIG PINEY      FAIR      51  35  54 S9        30.27R
PINEDALE       FAIR      52  36  54 N7        30.29R
DUBOIS         FAIR      46  34  61 CALM      30.29R
LANDER         FAIR      54  44  69 W12       30.22R
RIVERTON       FAIR      58  38  47 N3        30.22R
CASPER         FAIR      45  40  82 N6        30.23R
DOUGLAS        FAIR      50  36  58 NW3       30.22R

$$
WYZ021-027>030-104>119-300500-
SOUTHERN WYOMING

CITY           SKY/WX    TMP DP  RH WIND       PRES   REMARKS
EVANSTON       FAIR      60  32  34 NE7       30.24R
KEMMERER         N/A     52  34  50 N10       30.26S
FORT BRIDGER   FAIR      58  28  31 E8        30.27R
ROCK SPRINGS   FAIR      52  34  50 E13       30.25R
DIXON            N/A     50  37  61 NE5       30.28R
RAWLINS        FAIR      47  36  65 N9        30.28R
SARATOGA       FAIR      50  36  57 CALM      30.29R
LARAMIE        MOCLDY    46  38  73 S9        30.29R
CHEYENNE       FAIR      53  42  66 CALM      30.27R
TORRINGTON     FAIR      56  36  47 N8        30.17R
PINE BLUFFS    FAIR      45  39  81 CALM      30.23R

$$




USA.gov is the U.S. government's official web portal to all federal, state and local government web resources and services.